Location: ??????????
(44.2167°N, 135.5333°E)
Time: 14:07:50
(UTC+00:00)

Meteor 1-28 Rocket - Pass Details

Date: 15 June 2025
Orbit: 442 x 455 km, 97.6° (Epoch: 15 July)

Event Time Altitude Azimuth Distance (km) Brightness Sun altitude
Rises 18:18:35 0° 164° (SSE) 2,460 6.4 -8.4°
Reaches altitude 10° 18:20:37 10° 164° (SSE) 1,590 5.4 -8.2°
Maximum altitude 18:24:01 82° 78° (ENE) 465 3.0 -7.7°
Drops below altitude 10° 18:27:27 10° 349° (N) 1,598 6.2 -7.3°
Sets 18:29:29 0° 349° (N) 2,473 7.1 -7.0°
